Weather observations for the past three days for
Sierra Blanca Regional Airport
Metric (Imperial)
Date Time (mdt) Wind (kph) Vis. (km) Weather Sky Cond. Temperature (ºC) Relative Humidity Wind Chill (°C) Heat Index (°C) Pressure Precipitation (cm)
Air Dwpt 6 hour altimeter (cm) sea level (mb) 1 hr 3 hr 6 hr
Max. Min.
06 19:55 SW 15 16.09 NULL NULL 14 -11 17% 76.48 0.0
06 19:35 W 15 16.09 NULL NULL 15 -12 14% 76.45 0.0
06 19:15 SW 17 16.09 NULL NULL 15 -11 16% 76.43 0.0
06 18:15 W 24 16.09 NULL NULL 17 -12 13% 76.38 0.0
06 17:55 W 19 G 30 16.09 NULL NULL 17 -11 14% 76.38 0.0
06 17:35 W 35 G 43 16.09 Fair and Breezy CLR 17 -12 13% 76.35 0.0
06 17:15 SW 19 G 35 16.09 NULL NULL 17 -12 13% 76.35 0.0
06 16:55 W 28 G 52 16.09 Fair CLR 18 -12 12% 76.35 0.0
06 16:35 W 26 G 41 0.00 NULL NULL 17 -12 13% 76.33 0.0
06 16:15 W 30 G 59 16.09 Fair CLR 18 -12 12% 76.33 0.0
06 15:55 W 31 G 44 16.09 Fair CLR 18 -12 12% 76.33 0.0
06 15:35 W 31 G 41 16.09 Fair CLR 18 -13 11% 76.33 0.0
06 15:15 W 30 G 44 16.09 Fair CLR 18 -12 12% 76.35 0.0
06 14:55 SW 37 16.09 Fair and Breezy CLR 18 -10 14% 76.33 0.0
06 14:35 W 31 G 41 16.09 Fair CLR 17 -12 13% 76.35 0.0
06 14:15 W 39 G 52 16.09 Fair and Breezy CLR 17 -12 13% 76.35 0.0
06 13:55 W 37 G 44 16.09 Fair and Breezy CLR 17 -11 14% 76.35 0.0
06 13:35 W 24 G 43 16.09 Fair CLR 16 -12 13% 76.38 0.0
06 13:15 W 33 G 44 16.09 Fair and Breezy CLR 16 -12 13% 76.38 0.0
06 12:55 W 20 G 44 16.09 Fair CLR 16 -10 16% 76.4 0.0
06 12:35 W 28 G 39 16.09 Fair CLR 15 -10 17% 76.4 0.0
06 12:15 W 22 G 31 16.09 Fair CLR 15 -8 20% 76.43 0.0
06 11:55 NW 26 G 39 16.09 Fair CLR 15 -9 18% 76.43 0.0
06 11:35 W 35 G 44 16.09 Fair and Breezy CLR 14 -9 20% 76.43 0.0
06 11:15 W 28 G 33 16.09 Fair CLR 14 -9 20% 76.43 0.0
06 10:55 NW 11 G 37 16.09 Fair CLR 14 -7 23% 76.43 0.0
06 10:35 NW 19 G 35 16.09 Fair CLR 13 -8 23% 76.43 0.0
06 10:15 W 30 G 37 16.09 Fair CLR 13 -7 24% 76.4 0.0
06 09:55 W 26 G 39 16.09 Fair CLR 12 -7 26% 76.4 0.0
06 09:35 W 26 G 37 16.09 Fair CLR 12 -6 28% 76.4 0.0
06 09:15 NW 26 G 35 16.09 Fair CLR 12 -6 28% 76.4 0.0
06 08:55 NW 26 G 35 16.09 Fair CLR 12 -6 28% 76.4 0.0
06 08:35 NW 20 G 31 16.09 Fair CLR 11 -4 35% 76.4 0.0
06 08:15 W 19 16.09 Fair CLR 11 -4 35% 76.4 0.0
06 07:55 NW 15 G 26 16.09 Fair CLR 10 -2 43% 8 76.4 0.0
06 07:35 W 20 16.09 Fair CLR 10 -2 43% 8 76.4 0.0
06 07:15 W 13 16.09 Fair CLR 9 -2 46% 7 76.38 0.0
06 06:55 W 9 16.09 Fair CLR 7 -2 53% 5 76.35 0.0
06 06:35 W 9 16.09 Fair CLR 7 -2 53% 5 76.35 0.0
06 06:15 W 13 16.09 Fair CLR 7 -2 53% 5 76.33 0.0
06 05:55 NW 11 16.09 Fair CLR 7 -2 53% 5 76.33 0.0
06 04:55 NW 9 16.09 Fair CLR 8 -1 53% 7 76.3 0.0
06 04:15 W 15 16.09 Fair CLR 9 -1 50% 7 76.28 0.0
06 03:55 W 20 G 31 16.09 Fair CLR 9 -1 50% 6 76.28 0.0
06 03:15 W 20 16.09 Fair CLR 9 -2 46% 6 76.25 0.0
06 02:55 NW 15 16.09 Fair CLR 10 -2 43% 8 76.25 0.0
06 02:35 W 22 G 33 16.09 Fair CLR 10 -2 43% 7 76.25 0.0
06 02:15 W 20 G 33 16.09 Fair CLR 11 -3 38% 76.23 0.0
06 01:55 W 28 G 41 16.09 Fair CLR 12 -3 35% 76.23 0.0
06 01:35 W 28 G 39 16.09 Fair CLR 12 -3 35% 76.23 0.0
06 01:15 W 31 G 44 16.09 Fair CLR 12 -4 33% 76.2 0.0
06 00:55 W 43 G 50 16.09 Fair and Windy CLR 12 -4 33% 76.2 0.0
06 00:35 W 31 G 52 16.09 Fair CLR 12 -4 33% 76.23 0.0
05 23:55 W 28 G 39 16.09 Fair CLR 13 -5 28% 76.23 0.0
05 23:35 W 26 G 44 16.09 Fair CLR 13 -5 28% 76.2 0.0
05 23:15 W 30 16.09 Fair CLR 12 -5 30% 76.2 0.0
05 22:55 SW 28 G 41 16.09 Fair CLR 13 -4 31% 76.2 0.0
05 21:35 SW 28 G 37 16.09 Fair CLR 13 -3 33% 76.15 0.0
05 21:15 SW 30 G 41 16.09 NULL NULL 14 -4 29% 76.15 0.0
05 20:55 SW 35 G 46 16.09 Fair and Breezy CLR 14 -4 29% 76.12 0.0
05 20:35 SW 35 G 48 16.09 Fair and Breezy CLR 14 -4 29% 76.1 0.0
05 20:15 SW 35 G 56 16.09 Breezy NULL 14 -4 29% 76.07 0.0
05 19:55 SW 43 G 52 16.09 Windy NULL 14 -4 29% 76.07 0.0
05 19:15 W 28 G 48 16.09 NULL NULL 14 -3 31% 76.02 0.0
05 18:55 W 52 G 63 16.09 Windy NULL 15 -3 29% 76 0.0
05 18:35 SW 44 G 59 16.09 Windy NULL 15 -2 31% 76.02 0.0
05 18:15 SW 48 G 59 16.09 Windy NULL 15 -2 31% 76.02 0.0
05 17:35 W 35 G 54 0.00 Breezy NULL 0 0 0% 76 0.0
05 17:15 SW 56 G 70 0.00 Windy NULL 15 1 39% 76 0.0
05 16:35 SW 50 G 72 16.09 Windy NULL 16 1 36% 76 0.0
05 16:15 W 46 G 63 16.09 Windy NULL 17 0 32% 76.02 0.0
05 15:55 SW 54 G 63 16.09 Windy NULL 17 0 32% 76.02 0.0
05 15:35 W 48 G 65 16.09 Windy NULL 17 1 34% 76.05 0.0
05 14:35 SW 50 G 69 16.09 Fair and Windy CLR 17 1 34% 76.07 0.0
05 14:15 SW 50 G 65 16.09 Windy NULL 16 1 36% 76.1 0.0
05 13:55 SW 57 G 70 16.09 Fair and Windy CLR 17 2 37% 76.12 0.0
05 13:35 SW 50 G 61 16.09 Fair and Windy CLR 17 2 37% 76.12 0.0
05 13:15 SW 46 G 63 16.09 Fair and Windy CLR 16 2 39% 76.12 0.0
05 12:55 W 44 G 61 16.09 Fair and Windy CLR 17 1 34% 76.15 0.0
05 12:35 W 50 G 69 16.09 Fair and Windy CLR 17 1 34% 76.15 0.0
05 12:15 W 44 G 65 16.09 Fair and Windy CLR 16 0 34% 76.15 0.0
05 11:55 W 46 G 69 16.09 Fair and Windy CLR 17 0 32% 76.15 0.0
05 11:35 SW 37 G 61 16.09 Fair and Breezy CLR 16 0 34% 76.17 0.0
05 11:15 W 44 G 59 16.09 Fair and Windy CLR 17 0 32% 76.15 0.0
05 10:55 SW 41 G 50 16.09 Fair and Breezy CLR 17 0 32% 76.15 0.0
05 10:35 W 33 G 46 16.09 Fair and Breezy CLR 16 0 34% 76.17 0.0
05 10:15 SW 35 G 48 16.09 Fair and Breezy CLR 16 0 34% 76.15 0.0
05 09:55 SW 35 G 54 16.09 Fair and Breezy CLR 15 -1 34% 76.15 0.0
05 09:35 W 28 G 48 16.09 Fair CLR 15 -2 31% 76.12 0.0
05 09:15 W 33 G 52 16.09 Fair and Breezy CLR 15 -2 31% 76.15 0.0
05 08:55 W 31 G 43 16.09 Fair CLR 14 -1 36% 76.15 0.0
05 08:35 W 43 G 54 16.09 Fair and Windy CLR 13 0 41% 76.12 0.0
05 08:15 SW 52 G 72 16.09 Fair and Windy CLR 13 0 41% 76.15 0.0
05 07:55 SW 46 G 61 16.09 Fair and Windy CLR 15 -2 31% 76.2 0.0
05 07:15 W 20 G 31 16.09 Partly Cloudy SCT120 15 -3 29% 76.15 0.0
05 06:35 NW 20 G 26 16.09 Fair CLR 13 -2 36% 76.1 0.0
05 06:15 NW 22 G 35 16.09 Fair CLR 13 -2 36% 76.1 0.0
05 05:55 NW 22 G 35 16.09 Fair CLR 14 -2 33% 76.07 0.0
05 05:35 NW 24 G 43 16.09 Fair CLR 14 -2 33% 76.07 0.0
05 05:15 NW 22 G 43 16.09 Fair CLR 14 -2 33% 76.07 0.0
05 04:55 W 26 G 54 16.09 Fair CLR 14 -2 33% 76.07 0.0
05 04:35 W 22 G 43 16.09 Fair CLR 14 -3 31% 76.05 0.0
05 04:15 W 28 G 48 16.09 Fair CLR 14 -3 31% 76.05 0.0
05 03:55 W 26 G 46 16.09 A Few Clouds FEW085 14 -3 31% 76.05 0.0
05 03:15 W 28 G 43 16.09 A Few Clouds FEW048 14 -2 33% 76.1 0.0
05 02:35 W 28 G 46 16.09 A Few Clouds FEW075 15 -3 29% 76.1 0.0
05 02:15 W 30 G 41 16.09 Mostly Cloudy FEW065 BKN075 14 -2 33% 76.1 0.0
05 01:55 W 26 G 43 16.09 Mostly Cloudy BKN075 14 -2 33% 76.1 0.0
05 01:35 W 39 G 59 16.09 Mostly Cloudy and Breezy SCT060 BKN085 15 -2 31% 76.12 0.0
05 01:15 W 28 G 54 16.09 Overcast BKN070 OVC085 15 -2 31% 76.12 0.0
05 00:55 W 30 G 44 16.09 Partly Cloudy SCT085 15 -4 27% 76.12 0.0
05 00:35 W 28 G 37 16.09 Fair CLR 15 -4 27% 76.1 0.0
05 00:15 W 31 G 37 16.09 Fair CLR 14 -3 31% 76.12 0.0
04 23:55 NW 22 G 37 16.09 A Few Clouds FEW095 14 -3 31% 76.12 0.0
04 23:35 W 37 G 63 16.09 A Few Clouds and Breezy FEW060 FEW095 15 -3 29% 76.12 0.0
04 23:15 W 39 G 52 16.09 A Few Clouds and Breezy FEW060 15 -3 29% 76.15 0.0
04 22:55 W 43 G 54 16.09 Mostly Cloudy and Windy FEW050 BKN080 BKN090 16 -5 23% 76.17 0.0
04 22:35 W 31 G 43 16.09 NULL NULL 17 -6 20% 76.17 0.0
04 22:15 W 37 G 52 16.09 Breezy NULL 17 -7 19% 76.2 0.0
04 20:15 SW 26 G 39 16.09 NULL NULL 17 -7 19% 76.15 0.0
04 19:55 SW 28 G 33 0.00 NULL NULL 17 -6 20% 76.15 0.0
04 19:35 SW 33 0.00 Breezy NULL 0 0 0% 76.12 0.0
04 18:55 SW 37 G 57 16.09 Breezy NULL 18 -5 21% 76.17 0.0
04 18:35 SW 31 0.00 NULL NULL 0 0 0% 76.12 0.0
04 17:55 SW 37 G 44 16.09 Breezy NULL 19 -5 19% 76.17 0.0
04 17:35 SW 31 0.00 NULL NULL 19 -5 19% 76.17 0.0
04 16:35 SW 26 G 43 16.09 NULL NULL 19 -5 19% 76.23 0.0
04 16:15 SW 35 G 43 16.09 Breezy NULL 19 -5 19% 76.23 0.0
04 15:15 W 28 16.09 NULL NULL 19 -10 13% 76.28 0.0
04 14:55 W 26 16.09 NULL NULL 19 -10 13% 76.28 0.0
04 14:35 W 31 G 37 16.09 NULL NULL 20 -11 11% 76.28 0.0
04 14:15 W 22 G 43 16.09 NULL NULL 20 -11 11% 76.3 0.0
04 13:55 W 33 G 44 16.09 Breezy NULL 21 -10 12% 76.3 0.0
04 13:15 W 39 G 48 16.09 Breezy NULL 20 -10 12% 76.33 0.0
04 12:55 W 17 G 39 16.09 Fair CLR 20 -7 16% 76.35 0.0
04 12:35 W 26 G 35 16.09 Fair CLR 19 -5 19% 76.35 0.0
04 12:15 SW 22 G 39 16.09 Fair CLR 19 -7 17% 76.38 0.0
04 11:55 NW 19 G 44 16.09 Fair CLR 19 -8 15% 76.38 0.0
04 11:35 W 28 G 37 16.09 Fair CLR 19 -8 15% 76.4 0.0
04 11:15 W 24 G 44 16.09 Fair CLR 19 -7 17% 76.38 0.0
04 10:55 W 28 G 46 16.09 Fair CLR 18 -6 19% 76.4 0.0
04 10:35 W 31 G 46 16.09 Fair CLR 18 -5 21% 76.4 0.0
04 10:15 W 33 G 44 16.09 Fair and Breezy CLR 18 -5 21% 76.4 0.0
04 09:55 W 33 G 46 16.09 Fair and Breezy CLR 18 -6 19% 76.4 0.0
04 09:35 W 26 G 37 16.09 Fair CLR 18 -4 22% 76.4 0.0
04 09:15 W 35 G 48 16.09 Fair and Breezy CLR 17 -2 27% 76.4 0.0
04 08:55 W 37 G 46 16.09 Fair and Breezy CLR 17 -1 30% 76.38 0.0
04 08:35 W 41 G 50 16.09 Fair and Breezy CLR 16 -1 31% 76.38 0.0
04 08:15 W 33 G 52 16.09 Fair and Breezy CLR 15 -1 34% 76.38 0.0
04 07:55 W 28 G 44 16.09 Fair CLR 15 -2 31% 76.38 0.0
04 07:35 W 26 G 46 16.09 Fair CLR 15 -3 29% 76.38 0.0
04 07:15 W 22 G 31 16.09 Fair CLR 15 -2 31% 76.38 0.0
04 06:55 W 17 G 28 16.09 Fair CLR 14 -1 36% 76.35 0.0
04 06:35 W 26 G 39 16.09 Fair CLR 14 0 39% 76.33 0.0
04 06:15 W 26 G 35 16.09 Fair CLR 14 0 39% 76.35 0.0
04 05:55 W 26 G 41 16.09 Fair CLR 14 1 41% 76.28 0.0
04 05:35 W 28 G 37 16.09 Fair CLR 13 2 47% 76.25 0.0
04 05:15 W 31 G 39 16.09 Fair CLR 13 2 47% 76.3 0.0
04 04:55 W 30 G 41 16.09 Fair CLR 14 2 44% 76.3 0.0
04 04:35 W 26 16.09 Fair CLR 13 3 51% 76.33 0.0
04 04:15 W 19 16.09 Fair CLR 13 3 51% 76.35 0.0
04 03:55 SW 22 16.09 Fair CLR 12 3 54% 76.33 0.0
04 03:35 W 9 16.09 Fair CLR 12 2 51% 76.35 0.0
04 03:15 Calm 16.09 Fair CLR 13 2 47% 76.38 0.0
04 02:55 E 6 16.09 Fair CLR 11 3 58% 76.38 0.0
04 02:35 Calm 16.09 Fair CLR 11 3 58% 76.4 0.0
04 02:15 Calm 16.09 Fair CLR 10 3 62% 76.4 0.0
04 01:55 NE 7 16.09 Fair CLR 12 3 54% 76.43 0.0
04 01:35 S 7 16.09 Fair CLR 12 3 54% 76.45 0.0
04 01:15 S 7 16.09 Fair CLR 12 3 54% 76.5 0.0
04 00:55 Calm 16.09 Fair CLR 10 3 62% 76.5 0.0
04 00:35 SE 9 16.09 Fair CLR 12 3 54% 76.5 0.0
04 00:15 Calm 16.09 Fair CLR 12 3 54% 76.5 0.0
03 23:55 SE 7 16.09 Fair CLR 12 3 54% 76.53 0.0
03 23:35 E 7 16.09 Fair CLR 12 3 54% 76.53 0.0
03 23:15 E 9 16.09 Fair CLR 12 3 54% 76.56 0.0
03 22:55 SE 11 16.09 Fair CLR 12 3 54% 76.56 0.0
03 22:35 S 6 16.09 Fair CLR 13 3 51% 76.56 0.0
03 22:15 Calm 16.09 NULL NULL 13 3 51% 76.56 0.0
03 21:55 SE 9 16.09 Fair CLR 12 3 54% 76.56 0.0
03 21:35 SE 7 16.09 Partly Cloudy SCT110 12 3 54% 76.56 0.0
03 21:15 SE 9 16.09 NULL NULL 12 3 54% 76.56 0.0
03 20:35 SW 7 16.09 Partly Cloudy SCT080 13 3 51% 76.53 0.0
03 20:15 SW 13 16.09 NULL NULL 14 3 48% 76.53 0.0
Date Time (mdt) Wind (kph) Vis. (km) Weather Sky Cond. Air Dwpt Max. Min. Relative Humidity Wind Chill (°C) Heat Index (°C) altimeter (cm) sea level (mb) 1 hr 3 hr 6 hr
6 hour
Temperature (ºC) Pressure Precipitation (cm)